Location: Hemmes
(50.9802°N, 1.9626°E)
Time: 02:41:44
(UTC+00:00)

Daily predictions for brighter satellites

Satellite Brightness Start Highest point End
(mag) Time Altitude Azimuth Time Altitude Azimuth Time Altitude Azimuth
Cosmos 2263 Rocket 4.4 03:01:26 21° E 03:01:26 21° E 03:04:28 10° NE
ATLAS 3B R/B 3.4 03:30:35 48° NE 03:30:35 48° NE 03:37:10 10° ESE
ALOS 3.9 03:49:07 10° NNE 03:53:16 32° E 03:53:16 32° E
Cosmos 2227 Rocket 4.2 03:57:13 18° N 03:57:13 18° N 03:58:53 10° NNE
Cosmos 2344 4.4 03:53:00 42° NNW 03:56:34 67° NE 04:08:37 10° ESE
NOSS 3-2 (C) 4.3 04:00:07 53° S 04:00:07 53° S 04:06:49 10° SSE
CENTAUR R/B 3.3 04:01:35 58° SSW 04:01:35 58° SSW 04:09:07 10° SSE
NOSS 3-4 (A) 4.2 04:00:50 42° SSE 04:01:56 47° ESE 04:07:57 10° NE
NOSS 3-4 (C) 4.2 04:00:54 41° SSE 04:02:04 46° ESE 04:08:04 10° NE
SL-4 R/B 4.1 04:15:02 25° E 04:15:02 25° E 04:16:41 10° ENE
Cosmos 1680 Rocket 3.9 04:20:02 58° NNE 04:20:34 62° ENE 04:25:50 10° SE
ATLAS 2AS CENTAUR R/B 3.5 04:15:31 18° SSW 04:21:34 57° ESE 04:29:12 10° NE
Cosmos 2297 Rocket 4.1 04:30:31 17° N 04:30:31 17° N 04:32:32 10° NNE
ATLAS 5 CENTAUR R/B 3.5 04:31:19 27° NE 04:31:19 27° NE 04:32:29 10° NE
ATLAS CENTAUR R/B 2.6 04:32:06 37° E 04:32:06 37° E 04:34:47 10° ESE
Lacrosse 5 2.8 04:32:03 38° S 04:33:12 45° SE 04:38:01 10° ENE
ADEOS 3.9 04:28:06 10° NNE 04:33:19 64° ESE 04:38:30 10° S
Cosmos 1328 Rocket 4.4 04:35:40 44° SSE 04:35:40 44° SSE 04:38:46 10° SSE
Cosmos 2112 Rocket 4.1 04:38:53 49° N 04:40:22 75° ENE 04:45:43 10° SSE
Gbstr 26 Del rocket 4.0 04:43:34 33° SSE 04:43:34 33° SSE 04:45:57 10° SE
Cosmos 1745 Rocket 4.4 04:44:18 43° NW 04:44:18 43° NW 04:49:06 10° N
Cosmos 2263 Rocket 2.0 04:43:11 70° W 04:43:28 71° WNW 04:49:13 10° NNE
SJ 16-02 1.4 04:45:52 77° SE 04:45:59 78° ESE 04:50:27 10° NNE
Meteor 1-26 Rocket 4.1 04:48:59 31° NNW 04:51:54 75° W 04:57:31 10° S
Cosmos 1766 Rocket 3.8 04:58:04 56° NNW 04:58:04 56° NNW 05:01:44 10° N
FENGYUN 3A 3.5 04:52:48 10° NNE 04:58:14 74° WNW 05:03:37 10° SSW
Cosmos 2082 Rocket 4.3 04:57:54 10° NNW 05:02:01 20° NE 05:06:08 10° E
Cosmos 2181 Rocket 3.9 04:56:52 10° NNW 05:03:02 66° W 05:09:06 10° S
Cosmos 1408 Rocket 3.7 04:58:47 10° S 05:03:14 77° E 05:07:42 10° NNE
USA 307 3.1 05:05:08 55° NNW 05:05:28 57° N 05:09:44 10° E
Okean 3 Rocket 4.4 05:07:16 34° NNW 05:07:16 34° NNW 05:09:59 10° N
COSMO-SKYMED 1 2.4 05:02:31 10° S 05:06:51 76° WSW 05:07:59 48° NNW
Cosmos 1709 Rocket 4.0 05:01:50 10° SSW 05:08:05 56° WNW 05:14:23 10° N
Cosmos 1937 Rocket 4.5 05:05:47 10° S 05:10:41 47° ESE 05:15:40 10° NE
USA 308 3.1 05:11:14 52° NNW 05:11:49 57° N 05:16:05 10° E
Lacrosse 4 Rocket 3.3 05:14:32 18° SSW 05:14:32 18° SSW 05:16:09 10° SSW
Cosmos 1833 Rocket 4.2 05:08:13 12° NNW 05:12:49 30° NE 05:17:44 10° ESE
Meteor 2-3 Rocket 3.7 05:09:36 10° SSW 05:15:18 66° WNW 05:21:06 10° N
CZ-4C R/B 2.5 05:11:05 10° SSW 05:16:02 66° SE 05:22:04 10° NE
CZ-4B R/B 3.3 05:12:20 10° NNE 05:16:53 75° ESE 05:21:17 10° S
MOS 1 Rocket 3.9 05:12:30 10° SSE 05:17:18 63° ENE 05:22:26 10° N
FALCON 9 DEB 4.0 05:18:32 36° S 05:19:13 42° SSE 05:22:18 10° ENE
Meteor 1-10 Rocket 4.4 05:13:52 10° N 05:19:26 71° ENE 05:25:01 10° SSE
Cosmos 1689 Rocket 3.8 05:16:57 10° S 05:18:12 23° S 05:18:12 23° S
ATLAS 3B R/B 2.8 05:17:51 31° WNW 05:21:18 60° SW 05:28:20 10° SSE
COSMOS 2406 4.4 05:18:03 12° NNW 05:23:05 40° NE 05:28:28 10° ESE
SAR-Lupe-4 4.5 05:20:15 10° S 05:22:38 34° SW 05:22:38 34° SW
YAOGAN 6 4.5 05:24:20 10° NNE 05:27:31 31° E 05:30:39 10° SSE
Cosmos 1862 3.8 05:23:59 10° S 05:27:58 62° E 05:32:01 10° NNE
Genesis I 3.7 05:25:02 10° SSW 05:28:46 57° SE 05:32:34 10° NE
deb Chang Zheng 4 3.6 05:26:25 10° N 05:30:40 55° WNW 05:34:55 10° SSW
ALOS 2.7 05:26:29 10° N 05:30:47 37° WNW 05:31:45 33° W
Cosmos 990 Rocket 3.9 05:31:00 10° SSW 05:36:14 76° WNW 05:41:32 10° NNE
Cosmos 2074 Rocket 3.9 05:31:46 10° SSW 05:37:58 78° W 05:44:14 10° N
METEOR-M 4.3 05:33:09 10° N 05:38:14 46° WNW 05:43:18 10° SW
Cosmos 2227 Rocket 4.0 05:39:03 13° NNW 05:39:31 13° NNW 05:42:09 10° N
Meteor 1-31 Rocket 3.3 05:36:55 10° N 05:40:27 35° WNW 05:40:29 35° WNW
USA 305 3.1 05:38:55 33° WNW 05:40:42 63° N 05:44:59 10° E
Cosmos 405 Rocket 2.7 05:40:04 10° S 05:43:45 78° E 05:47:32 10° NNE
Cosmos 1812 2.6 05:42:51 15° NNW 05:46:00 65° W 05:49:49 10° S
EO 1 Delta rocket 3.8 05:43:13 10° S 05:48:08 63° W 05:52:43 10° NNW
Cosmos 2228 Rocket 3.0 05:44:06 10° NNW 05:48:30 67° W 05:52:52 10° S
Cosmos 1515 Rocket 4.2 05:46:48 22° NW 05:48:56 35° W 05:52:58 10° SSW
USA 306 3.0 05:47:01 28° WNW 05:49:09 65° NNE 05:53:27 10° E
CENTAUR R/B 4.4 05:48:50 18° W 05:50:03 18° WSW 05:55:25 10° SW
Cosmos 1782 4.0 05:52:15 24° W 05:52:15 24° W 05:55:04 10° SW
SL-4 R/B 1.7 05:50:37 29° W 05:52:31 81° N 05:56:11 10° E
NOSS 3-4 (A) 3.6 05:48:19 17° WSW 05:52:48 52° NW 05:59:12 10° NE
NOSS 3-4 (C) 3.6 05:48:24 17° WSW 05:52:56 52° NW 05:59:20 10° NE
DMSP B5D1-3 4.5 05:49:45 10° S 05:54:52 69° WSW 06:00:03 10° NNW
Cosmos 2184 Rocket 4.0 05:49:17 10° SSW 05:55:33 63° WNW 06:01:55 10° N
USA-17 4.4 05:52:10 10° SW 05:55:44 74° SE 05:58:48 10° NE
SJ-12 4.4 05:53:58 10° N 05:57:41 35° WNW 06:01:22 10° SW
USA 234 4.5 05:51:49 10° ENE 05:58:01 43° SE 06:04:11 10° SSW
FALCON 9 DEB 3.0 05:56:59 21° WSW 05:58:58 79° SSE 06:02:11 10° ENE
FALCON 9 DEB 3.2 05:59:52 26° WNW 06:01:41 73° NNE 06:05:10 10° E
Cosmos 1844 Rocket 2.6 05:56:11 10° SW 06:01:51 76° WNW 06:07:34 10° NNE
Cosmos 1707 Rocket 3.7 06:01:11 10° N 06:05:33 75° E 06:09:52 10° SSE
EXPRESS MD2 4.2 06:03:36 20° W 06:06:16 60° SSW 06:13:33 10° ESE
Meteor PRIRODA 4.3 06:05:42 10° N 06:09:06 33° WNW 06:12:29 10° SW
ATLAS CENTAUR R/B 2.5 06:08:18 19° W 06:09:39 23° WSW 06:12:44 10° S
COSMOS 2455 3.4 06:04:02 10° SSW 06:09:58 64° ESE 06:15:58 10° NE
RESURS DK-1 2.6 06:06:10 10° SW 06:10:12 48° NW 06:14:16 10° NNE
NOAA 6 4.1 06:05:42 10° NNE 06:10:51 86° ESE 06:15:59 10° SSW
ERBS 3.5 06:11:05 19° NW 06:12:41 28° N 06:15:37 10° ENE
ATLAS 2AS CENTAUR R/B 3.2 06:04:56 10° WSW 06:12:46 56° NW 06:20:23 10° NE
EP 3 3.2 06:11:51 22° WSW 06:12:55 65° NW 06:14:49 10° NE
H-2A R/B 3.0 06:09:42 10° N 06:13:30 48° WNW 06:17:14 10° SW
Cosmos 2297 Rocket 4.3 06:13:50 10° NNW 06:14:34 10° N 06:15:19 10° N
Cosmos 1500 Rocket 3.9 06:11:04 10° SW 06:15:08 40° WNW 06:19:16 10° N
Cosmos 1844 3.6 06:10:12 10° SW 06:15:45 74° WNW 06:21:23 10° NNE
CZ-4B DEB 4.2 06:10:31 10° NNE 06:16:01 86° WNW 06:21:29 10° SSW
Lacrosse 5 1.9 06:11:18 11° WSW 06:16:07 62° NNW 06:21:10 10° ENE
Cosmos 1437 Rocket 2.9 06:12:28 10° NNW 06:16:09 47° W 06:19:46 10° S
Cosmos 372 Rocket 4.0 06:14:12 10° SSW 06:19:18 87° ESE 06:24:27 10° NNE
Okean O Rocket 2.2 06:15:10 10° NNE 06:19:36 62° ESE 06:24:00 10° S
Cosmos 1242 Rocket 3.6 06:17:36 10° N 06:21:09 46° ENE 06:24:41 10° SSE
Uosat 12 SS-18 rocket 4.5 06:16:46 12° NW 06:21:09 81° SW 06:26:53 10° SE
PAYLOAD B 4.3 06:16:53 10° NNE 06:22:27 89° ESE 06:27:57 10° SSW
Geosat 4.1 06:18:04 10° SE 06:23:06 83° ENE 06:28:10 10° NNW
SMAP 3.3 06:18:37 10° NNE 06:23:18 77° ESE 06:27:58 10° S
SJ 16-02 2.8 06:22:56 13° W 06:25:09 18° NW 06:28:11 10° N
USA 81 4.2 06:20:19 10° S 06:25:34 83° E 06:30:53 10° N
Cosmos 2263 Rocket 3.5 06:24:56 12° WNW 06:28:28 20° NW 06:32:40 10° NNE
ATLAS 5 CENTAUR R/B 3.2 06:28:28 10° S 06:32:16 38° ESE 06:36:30 10° NE
FALCON 9 DEB 2.9 06:29:07 10° WSW 06:32:19 78° NNW 06:35:33 10° ENE
FALCON 9 DEB 2.9 06:29:10 10° W 06:32:23 76° NNW 06:35:38 10° ENE
Nadezhda 3 Rocket 4.4 06:27:46 10° NNW 06:33:35 40° W 06:39:19 10° SSW
Sich 1 3.1 06:31:23 10° SSW 06:35:47 62° WNW 06:40:12 10° N
Cosmos 1898 Rocket 4.2 06:31:03 10° WSW 06:35:53 34° NW 06:40:45 10° NNE
Cosmos 2218 Rocket 4.4 06:29:49 10° S 06:36:02 70° E 06:42:12 10° NNE
CZ-2C R/B 2.7 06:31:30 10° S 06:36:57 69° WSW 06:42:19 10° NNW
AQUARIUS 4.2 06:32:31 10° NNE 06:37:04 88° W 06:41:33 10° SSW
H-2A R/B 2.4 06:33:47 10° N 06:37:33 50° WNW 06:41:15 10° SW
Envisat 3.1 06:32:39 10° N 06:37:37 54° WNW 06:42:33 10° SW
Cosmos 2366 rocket 4.4 06:34:07 10° S 06:40:24 73° E 06:46:40 10° NNE
CORIOLIS 4.3 06:36:57 10° NNE 06:42:27 86° ESE 06:47:54 10° SSW
USA 307 3.0 06:41:23 10° WNW 06:45:44 85° SSW 06:50:03 10° ESE
Cosmos 2082 Rocket 2.6 06:41:28 10° NNW 06:47:11 69° ENE 06:52:53 10° SE
CZ-4B R/B 3.2 06:41:58 10° NNE 06:47:20 81° WNW 06:52:46 10° SSW
NOAA 11 4.4 06:43:32 10° NNE 06:49:03 80° ESE 06:54:34 10° SSW
CZ-4 R/B 3.6 06:46:08 10° NNE 06:49:54 31° E 06:53:39 10° SSE
Cosmos 1862 Rocket 3.6 06:47:12 10° NNW 06:51:41 74° W 06:56:04 10° S
USA 308 3.0 06:47:44 10° WNW 06:52:04 80° SSW 06:56:23 10° ESE
Cosmos 1937 Rocket 4.2 06:48:13 10° WSW 06:52:50 32° NW 06:57:32 10° N
Cosmos 1939 Rocket 3.4 06:48:49 10° NNE 06:52:53 66° ESE 06:56:58 10° S
FALCON 9 DEB 3.0 06:52:00 10° W 06:55:13 66° N 06:58:27 10° ENE
Cosmos 1833 Rocket 2.8 06:51:36 10° NW 06:57:12 65° WSW 07:02:44 10° SSE
Cosmos 1269 Rocket 4.3 06:52:15 10° NNW 06:57:34 71° ENE 07:02:50 10° SSE
